Dewpoint
-1 -2 -7 -14 -14 -16 -6 1 0 0 0 -1 -1 -1 -2 -6 -4 3 4 3 -1 -5 -4 -6 2 8 10 11 11 10 11 10 9 8 8 8 7 4 1 -0 -3 -4 -4
-1 -4 -10 -11 -12 -14 -3 -1 1 1 1 1 1 3 2 -0 -2 -2 3 3 -2 -3 -3 -4 -4 5 9 10 10 10 10 10 9 8 8 7 4 0 -2 -2 -1 -2 0
-1 -6 -9 -9 -12 -15 -7 -0 1 1 1 1 1 2 3 3 2 3 3 1 -0 -1 -2 -4 -5 4 7 9 10 10 11 10 10 9 7 8 7 6 1 2 3 3 3
-1 -4 -7 -7 -9 -16 -11 1 1 1 1 1 2 3 3 4 4 4 3 1 -1 -2 -2 -1 0 2 7 8 9 9 10 10 9 8 7 9 9 8 8 7 8 6 5
-2 -4 -5 -5 -8 -13 -16 -4 1 1 1 1 3 3 4 4 3 3 2 1 0 -1 -0 2 5 6 7 7 8 9 10 9 8 7 9 8 8 8 8 8 7 8 6
-3 -3 -4 -3 -6 -11 -17 -10 -0 1 1 2 2 3 4 4 1 3 1 1 1 3 7 7 8 8 7 9 9 9 8 8 6 3 7 7 8 8 8 8 8 8 7
-3 -3 -3 -2 -5 -10 -18 -19 -12 1 2 1 3 3 4 4 5 4 2 4 3 4 6 7 6 7 7 7 8 7 7 6 6 5 5 8 7 7 7 8 8 8 7
-4 -4 -3 -2 -4 -9 -19 -20 -18 -5 2 3 3 3 4 4 4 5 5 6 6 7 7 7 6 4 5 7 7 6 5 4 3 6 8 7 7 6 6 7 7 7 7
-4 -4 -3 -2 -3 -8 -15 -20 -21 -19 1 3 3 3 3 3 4 4 4 5 5 5 6 6 7 6 6 6 6 6 7 7 7 6 5 6 5 5 6 6 5 5 4
-4 -5 -3 -1 -1 -5 -9 -19 -21 -21 -10 2 3 3 3 4 3 3 3 4 4 5 6 6 6 7 6 6 5 5 4 5 5 5 5 3 1 -2 -9 -12 -11 -8 -3
-6 -3 -6 -4 0 -2 -7 -14 -21 -21 -21 -19 1 3 3 4 4 4 3 4 4 4 5 6 5 5 5 5 5 4 4 4 2 1 0 -2 -3 -6 -13 -19 -22 -20 -17
-4 -7 -6 -5 -4 -1 -3 -9 -19 -21 -22 -22 -20 -4 2 2 2 1 2 3 3 3 3 3 3 3 4 3 3 3 -6 -16 -19 -19 -21 -20 -19 -20 -21 -20 -18 -17 -16
-7 -7 -6 -6 -6 -2 -1 -7 -13 -21 -22 -22 -22 -22 -21 -14 -8 -3 -2 -8 -12 -13 -10 -3 -1 -2 -6 -16 -19 -18 -20 -21 -21 -20 -19 -20 -20 -17 -16 -13 -13 -12 -11
-7 -7 -7 -7 -8 -5 -1 -3 -9 -16 -21 -22 -22 -23 -24 -26 -26 -25 -24 -23 -22 -22 -22 -22 -22 -23 -23 -23 -23 -22 -21 -21 -20 -20 -20 -17 -15 -14 -13 -13 -13 -12 -12
-8 -8 -8 -9 -9 -8 -3 -2 -4 -10 -19 -21 -22 -22 -23 -24 -24 -24 -23 -24 -24 -24 -23 -22 -22 -21 -21 -21 -21 -21 -20 -18 -18 -17 -16 -15 -14 -13 -13 -12 -11 -9 -7
-8 -8 -9 -11 -11 -9 -6 -2 -2 -7 -13 -20 -21 -21 -22 -23 -25 -26 -26 -25 -22 -20 -21 -22 -22 -21 -19 -19 -18 -18 -16 -16 -16 -16 -16 -15 -15 -15 -15 -14 -14 -10 -7
-10 -8 -9 -10 -11 -10 -6 -3 -2 -4 -8 -16 -20 -20 -21 -22 -22 -23 -24 -24 -23 -21 -21 -19 -18 -17 -16 -14 -13 -15 -16 -15 -15 -15 -16 -16 -16 -16 -15 -13 -8 -8 -6
-12 -9 -9 -9 -10 -10 -6 -3 -2 -3 -5 -9 -18 -20 -20 -21 -21 -22 -23 -22 -21 -21 -21 -20 -18 -17 -16 -15 -15 -17 -16 -16 -16 -16 -16 -16 -15 -14 -9 -6 -6 -6 -6
-10 -9 -9 -8 -8 -10 -9 -4 -2 -2 -3 -5 -10 -19 -20 -20 -20 -21 -22 -22 -22 -20 -19 -18 -18 -17 -16 -15 -15 -16 -16 -16 -16 -15 -14 -15 -15 -13 -6 -5 -6 -6 -6
-8 -9 -9 -9 -8 -9 -8 -7 -4 -2 -2 -3 -6 -14 -19 -19 -19 -19 -20 -21 -21 -21 -20 -18 -18 -18 -17 -16 -16 -16 -18 -18 -16 -15 -15 -15 -15 -12 -6 -6 -6 -7 -7
-7 -8 -8 -8 -8 -8 -8 -8 -6 -4 -3 -2 -4 -9 -17 -18 -18 -18 -19 -20 -21 -21 -20 -19 -18 -17 -17 -17 -17 -18 -18 -18 -18 -17 -16 -15 -13 -6 -7 -7 -9 -7 -6
-6 -6 -5 -6 -7 -7 -8 -8 -8 -7 -3 -3 -4 -6 -13 -17 -17 -17 -18 -19 -20 -20 -19 -19 -18 -17 -17 -17 -17 -17 -17 -17 -17 -17 -16 -15 -13 -13 -12 -12 -11 -10 -10
-4 -4 -4 -5 -6 -7 -7 -7 -7 -7 -4 -3 -3 -5 -9 -15 -16 -16 -16 -18 -19 -19 -19 -18 -18 -17 -17 -16 -17 -16 -14 -13 -12 -14 -15 -15 -14 -14 -13 -12 -11 -10 -10
-3 -3 -4 -5 -5 -6 -7 -7 -6 -6 -5 -3 -3 -4 -6 -11 -15 -15 -15 -17 -18 -19 -19 -18 -18 -17 -16 -16 -16 -14 -13 -11 -10 -11 -12 -12 -12 -12 -13 -13 -12 -10 -10
-3 -3 -3 -3 -4 -4 -6 -6 -5 -5 -5 -4 -3 -4 -5 -8 -13 -14 -14 -16 -17 -18 -18 -19 -18 -17 -16 -15 -13 -9 -8 -8 -8 -8 -12 -12 -12 -13 -13 -13 -12 -11 -10
-3 -2 -3 -3 -4 -4 -6 -6 -5 -4 -4 -4 -3 -3 -4 -6 -10 -13 -13 -14 -16 -17 -18 -18 -18 -15 -13 -13 -10 -7 -8 -8 -9 -12 -12 -13 -14 -13 -12 -12 -12 -11 -10
Wind_Speed
9 12 10 15 17 20 24 27 29 27 27 26 26 26 26 27 30 31 27 28 27 28 27 28 30 22 26 28 27 33 26 25 20 18 18 19 20 21 20 20 19 18 19
11 10 12 15 18 20 23 24 25 21 21 24 26 25 25 23 22 22 22 20 19 21 23 24 26 29 23 25 27 35 28 25 20 19 15 15 19 18 16 14 12 16 19
14 13 14 15 18 18 21 22 21 19 21 22 24 23 23 24 22 14 14 13 13 13 15 18 20 22 22 24 25 22 24 19 18 15 11 3 6 13 15 12 17 20 21
17 15 15 17 18 17 18 20 19 20 21 21 23 20 18 22 17 13 8 5 8 12 13 14 14 18 16 18 21 21 19 17 15 13 14 19 18 14 16 22 26 26 28
16 15 15 17 17 17 16 19 18 18 19 20 17 18 15 16 15 9 7 7 8 8 8 9 10 11 12 14 17 11 12 9 10 10 19 14 15 19 22 26 26 26 31
14 16 15 16 16 16 15 15 17 17 17 18 13 15 14 15 14 6 5 7 10 6 2 3 6 7 8 10 11 11 12 10 13 10 15 12 12 14 19 21 26 32 32
15 16 17 16 16 15 14 14 15 16 15 16 14 13 12 12 11 7 6 5 3 4 4 3 2 3 4 6 7 8 12 14 17 17 18 16 18 21 24 27 30 29 35
14 16 15 15 15 14 14 14 13 15 13 14 13 12 10 10 11 9 6 1 3 5 6 6 5 6 6 7 6 4 6 8 11 15 15 17 19 19 22 23 23 26 26
12 14 14 15 15 14 13 13 12 11 12 11 10 9 8 7 10 10 8 4 2 5 4 4 6 5 4 7 6 8 9 13 16 15 17 19 18 19 21 21 19 15 9
12 16 17 16 16 16 14 14 13 10 10 9 8 9 7 6 7 7 7 4 2 3 3 3 4 5 4 6 9 9 11 14 16 14 17 17 18 18 18 18 19 18 18
20 22 22 19 18 16 16 14 13 10 9 9 8 7 6 5 3 3 4 3 0 2 3 4 6 7 8 8 13 14 15 14 15 17 17 18 17 17 17 18 20 19 20
29 28 26 23 19 17 16 16 13 11 9 8 7 6 6 5 4 4 5 6 7 9 10 10 10 10 12 14 12 13 12 10 10 10 11 13 13 15 17 18 17 17 18
31 22 18 17 17 18 17 16 15 12 10 9 8 7 6 5 5 5 6 5 6 7 7 8 10 11 11 11 9 8 9 10 10 10 11 13 14 13 15 15 16 17 18
21 17 15 19 18 17 18 18 17 14 12 11 10 9 8 8 7 7 7 6 6 6 6 6 7 7 7 7 8 9 9 9 9 10 11 11 12 13 13 15 16 18 20
18 14 16 16 17 18 19 19 17 17 15 13 11 10 10 9 8 8 7 7 7 7 7 7 7 8 7 7 7 7 7 7 8 9 10 11 14 16 17 19 19 18 19
23 18 15 19 21 19 19 20 19 18 18 16 14 13 11 10 9 8 7 8 8 8 7 7 7 7 7 7 7 6 6 6 7 8 9 11 13 15 17 18 18 16 18
26 22 17 21 25 21 18 21 20 19 20 19 17 15 14 12 10 9 8 8 8 8 8 8 7 7 6 6 6 9 8 9 10 11 12 14 16 17 17 16 15 17 16
29 20 16 22 25 23 18 18 21 23 23 21 20 19 17 15 13 12 11 10 9 8 8 8 8 8 8 8 9 10 9 10 11 13 15 17 17 18 15 17 19 20 21
31 17 19 23 26 23 19 18 21 24 26 24 23 21 19 18 16 14 13 12 11 10 9 9 8 8 8 9 9 10 10 12 13 14 14 16 16 15 14 16 19 22 23
30 28 27 30 28 25 22 22 22 26 29 24 23 22 21 20 18 16 15 13 12 12 12 11 10 9 9 10 11 13 13 13 14 15 16 16 17 15 15 18 20 24 23
27 24 31 33 30 26 24 24 25 29 27 25 23 23 24 22 20 19 17 15 14 13 12 12 12 12 11 11 12 14 14 15 16 16 15 15 15 14 16 17 20 18 21
33 30 35 32 31 28 27 25 25 24 25 27 26 26 26 25 23 21 19 17 16 15 14 13 13 13 13 13 12 13 14 15 16 16 14 14 14 16 18 19 20 20 22
35 38 37 33 28 28 29 28 25 23 24 28 29 28 27 26 25 24 21 20 18 17 15 14 14 14 13 12 13 13 14 12 12 14 13 13 14 16 17 18 18 18 19
41 40 37 31 31 30 29 29 25 23 24 28 30 29 29 28 27 25 23 22 20 18 16 16 15 14 14 13 12 13 12 10 12 12 13 13 14 15 16 16 15 16 18
44 42 37 36 36 34 30 28 27 25 26 28 30 31 30 30 29 27 24 22 19 18 17 16 16 16 14 13 12 10 11 10 10 12 13 13 14 15 14 15 16 17 18
40 39 38 39 35 30 29 27 25 27 29 32 33 33 32 32 30 28 25 24 22 20 18 17 16 14 14 13 10 11 8 10 10 13 14 15 15 15 16 16 18 19 19
Wind_Direction
304 314 315 321 321 323 328 330 329 332 335 331 332 319 311 287 275 265 267 273 268 259 255 255 252 265 265 252 250 254 252 246 248 245 252 262 264 261 265 272 275 276 279
310 308 313 316 322 331 332 333 336 339 346 346 346 341 334 324 299 276 265 270 265 256 254 258 250 256 267 265 258 248 245 237 243 239 251 281 274 266 259 259 266 282 287
298 299 306 314 323 325 334 338 343 343 345 343 336 332 336 335 326 296 285 281 261 249 255 259 249 246 260 265 258 238 242 230 237 235 229 257 259 303 291 270 287 291 292
280 293 302 313 320 325 334 343 346 346 345 340 344 343 336 331 336 317 315 299 278 276 260 260 248 243 259 265 263 247 242 240 232 249 245 231 254 279 298 295 293 302 303
274 284 294 305 317 323 333 346 345 345 346 347 357 352 337 336 332 359 347 332 316 289 272 249 228 237 259 264 257 241 215 238 237 253 253 253 260 260 266 285 292 292 300
278 283 291 299 313 323 331 340 348 347 346 350 359 355 346 346 0 297 352 336 339 342 7 206 208 208 234 240 247 252 255 257 283 283 292 275 269 273 271 279 287 296 303
280 286 292 301 309 321 329 335 339 349 349 350 359 357 3 7 357 3 318 333 344 20 43 96 139 220 263 268 284 277 273 273 264 273 291 280 270 276 281 283 288 289 295
290 294 298 298 304 314 324 329 339 354 349 350 360 10 4 11 13 6 3 28 155 138 146 169 193 206 208 227 238 243 259 251 264 260 266 275 277 282 284 286 290 299 300
308 307 304 301 301 306 316 322 330 345 352 353 355 8 20 35 35 18 20 24 148 157 178 180 196 218 237 226 240 260 264 261 268 269 271 263 277 281 278 283 288 300 309
315 332 314 302 299 302 310 315 319 334 344 342 342 347 8 31 35 25 22 19 352 229 193 205 209 231 267 288 287 289 282 278 274 283 272 277 269 276 283 284 282 287 280
334 310 321 305 293 294 300 305 308 316 327 333 327 324 341 355 6 355 354 3 334 259 257 248 258 263 277 288 288 295 295 284 272 266 270 272 275 276 281 286 291 291 289
307 312 311 308 286 281 289 293 297 301 306 315 324 326 317 319 324 329 316 293 286 283 280 283 281 275 283 287 287 276 274 271 265 263 271 270 275 285 287 284 283 283 283
310 308 309 316 306 273 278 284 287 289 291 294 300 306 315 315 307 305 288 288 289 284 276 268 270 273 276 280 282 271 260 261 266 272 280 290 293 292 288 289 293 295 294
318 317 312 311 307 287 271 278 281 282 281 281 284 290 298 304 302 299 298 297 291 284 284 281 276 270 269 272 278 283 288 290 295 300 303 303 299 297 297 297 300 299 298
313 316 317 324 317 288 268 266 271 273 275 273 271 276 283 291 299 304 305 302 299 299 299 297 294 290 285 276 272 275 278 282 294 301 300 304 309 313 315 314 314 312 311
302 304 308 323 322 304 276 260 262 265 266 266 265 262 263 268 274 278 281 287 292 293 286 278 271 269 272 277 278 268 271 282 297 313 319 317 310 305 303 301 297 303 307
305 292 300 323 326 315 283 261 257 258 259 261 261 262 264 267 270 272 274 276 280 280 280 283 284 283 280 277 288 305 316 317 319 318 316 316 317 316 310 309 313 310 309
317 294 299 322 329 317 299 271 250 250 255 256 256 256 258 260 264 269 275 277 273 269 266 268 268 268 269 269 273 290 298 304 308 313 318 322 325 324 323 321 318 317 315
317 279 298 315 322 312 298 275 257 248 250 253 254 253 252 253 257 263 271 277 281 283 281 276 273 272 272 273 279 294 301 307 311 314 316 319 322 323 326 323 320 316 316
310 289 294 304 310 310 295 277 264 252 248 252 255 252 250 251 254 257 262 268 276 278 281 284 282 281 280 283 288 295 300 306 310 317 323 325 322 323 330 324 319 317 326
315 310 297 297 296 299 292 286 275 261 256 251 251 247 246 247 249 251 258 263 264 265 270 275 279 280 279 280 288 298 303 304 305 312 321 327 329 331 319 321 319 326 319
296 302 312 301 296 287 285 285 281 280 259 249 248 245 244 244 244 246 249 253 256 259 264 268 270 273 280 287 292 296 296 298 308 314 321 324 327 324 326 325 321 319 319
299 299 304 297 296 282 278 278 290 278 261 248 247 247 245 243 242 243 246 248 252 256 259 261 264 269 272 276 286 290 288 298 308 314 322 327 324 324 328 327 326 324 321
303 303 306 298 301 295 276 275 281 268 260 252 247 248 245 244 241 241 243 245 249 254 257 261 262 263 263 269 275 284 293 305 308 315 325 322 323 324 325 328 332 336 338
301 302 297 295 293 294 284 279 279 268 260 255 249 246 245 243 242 242 245 249 249 251 255 260 261 261 264 269 274 282 290 299 308 303 316 314 315 318 322 334 341 345 343
304 301 301 301 295 278 277 279 275 274 266 260 252 245 242 240 239 238 239 243 246 250 258 262 263 262 269 269 266 258 273 276 292 309 311 312 314 320 327 336 341 346 345
Height
1507 1505 1504 1502 1499 1497 1492 1487 1482 1477 1471 1466 1461 1458 1455 1454 1454 1455 1456 1457 1457 1459 1460 1461 1466 1468 1469 1470 1473 1477 1480 1482 1485 1487 1489 1490 1491 1492 1493 1494 1495 1495 1495
1503 1503 1502 1500 1497 1493 1490 1485 1480 1475 1470 1465 1460 1455 1451 1449 1447 1447 1449 1450 1451 1453 1454 1456 1458 1463 1464 1465 1467 1470 1474 1476 1480 1483 1485 1485 1487 1487 1487 1488 1489 1490 1490
1500 1500 1499 1498 1494 1491 1487 1482 1477 1473 1468 1464 1459 1455 1452 1448 1445 1444 1445 1446 1447 1447 1449 1451 1454 1457 1459 1462 1463 1464 1458 1466 1473 1477 1480 1484 1485 1483 1483 1483 1483 1484 1484
1498 1498 1497 1494 1491 1488 1485 1480 1475 1471 1467 1462 1458 1454 1451 1448 1445 1443 1442 1442 1443 1443 1445 1446 1449 1452 1456 1457 1460 1461 1462 1463 1467 1474 1477 1480 1481 1481 1478 1476 1477 1477 1477
1495 1494 1493 1490 1488 1485 1482 1478 1474 1470 1466 1462 1458 1454 1451 1448 1445 1443 1442 1441 1441 1440 1441 1443 1446 1449 1452 1454 1457 1459 1462 1466 1467 1469 1477 1472 1474 1477 1477 1472 1471 1471 1471
1492 1490 1489 1488 1486 1483 1480 1476 1472 1469 1465 1461 1458 1455 1451 1448 1445 1443 1442 1441 1441 1440 1440 1442 1444 1447 1449 1453 1456 1458 1460 1463 1465 1467 1468 1468 1470 1473 1472 1469 1467 1463 1464
1488 1487 1486 1485 1483 1480 1477 1474 1471 1467 1464 1460 1457 1455 1452 1448 1446 1444 1443 1442 1441 1441 1442 1443 1446 1448 1450 1452 1452 1454 1455 1457 1457 1459 1462 1465 1468 1469 1466 1465 1460 1456 1454
1486 1485 1483 1481 1479 1477 1474 1472 1469 1466 1462 1459 1457 1454 1452 1449 1447 1445 1444 1443 1442 1442 1442 1444 1445 1446 1447 1450 1451 1452 1453 1455 1456 1459 1459 1463 1463 1462 1462 1461 1458 1449 1450
1484 1482 1480 1478 1476 1474 1471 1469 1466 1464 1461 1458 1456 1454 1452 1451 1448 1447 1446 1445 1444 1444 1443 1443 1443 1444 1445 1446 1447 1448 1450 1451 1454 1450 1454 1459 1455 1457 1459 1456 1454 1450 1448
1480 1478 1476 1475 1473 1471 1469 1467 1465 1463 1460 1458 1455 1453 1452 1450 1449 1448 1447 1446 1446 1446 1445 1445 1445 1445 1445 1446 1446 1447 1447 1448 1450 1446 1452 1452 1455 1452 1451 1451 1452 1446 1445
1478 1476 1473 1470 1469 1467 1466 1465 1463 1462 1460 1457 1455 1453 1452 1451 1449 1448 1447 1446 1445 1445 1445 1446 1446 1446 1445 1446 1445 1443 1444 1447 1448 1449 1449 1450 1449 1450 1448 1447 1444 1442 1440
1474 1471 1468 1466 1464 1464 1463 1462 1460 1459 1457 1456 1454 1452 1451 1450 1449 1448 1447 1446 1445 1445 1445 1445 1445 1445 1444 1443 1442 1443 1444 1445 1446 1446 1446 1446 1444 1442 1440 1441 1439 1436 1435
1467 1465 1463 1461 1459 1458 1458 1457 1456 1456 1455 1454 1452 1451 1450 1449 1447 1447 1446 1445 1444 1443 1442 1442 1441 1441 1440 1439 1439 1440 1441 1441 1441 1442 1442 1439 1438 1438 1438 1437 1434 1431 1430
1462 1460 1459 1457 1455 1454 1454 1453 1453 1452 1452 1451 1450 1450 1449 1447 1446 1444 1443 1443 1442 1441 1441 1440 1440 1440 1440 1440 1439 1439 1439 1439 1438 1437 1437 1436 1436 1435 1433 1431 1429 1428 1425
1458 1456 1454 1453 1450 1448 1447 1447 1447 1446 1447 1446 1446 1447 1446 1446 1445 1444 1443 1442 1440 1439 1438 1438 1438 1437 1437 1437 1437 1437 1437 1436 1436 1435 1434 1434 1432 1430 1428 1426 1424 1422 1420
1455 1453 1451 1448 1446 1443 1441 1442 1442 1441 1441 1441 1441 1441 1441 1441 1440 1440 1439 1439 1440 1439 1438 1437 1436 1435 1435 1435 1435 1435 1435 1434 1434 1432 1431 1430 1428 1426 1424 1423 1421 1419 1416
1451 1450 1448 1445 1441 1438 1436 1434 1436 1436 1435 1436 1436 1436 1437 1437 1438 1437 1437 1436 1436 1436 1435 1436 1435 1434 1433 1432 1431 1430 1431 1430 1429 1428 1427 1425 1424 1422 1420 1418 1416 1414 1413
1447 1445 1444 1440 1437 1434 1431 1430 1430 1430 1430 1430 1431 1431 1431 1432 1432 1432 1433 1432 1432 1431 1430 1431 1431 1431 1431 1430 1429 1429 1429 1428 1426 1425 1423 1421 1419 1417 1415 1413 1411 1409 1406
1444 1440 1439 1436 1432 1429 1427 1425 1424 1424 1423 1424 1425 1426 1426 1426 1427 1427 1428 1428 1427 1428 1428 1427 1426 1427 1427 1427 1426 1424 1424 1423 1422 1421 1419 1418 1415 1413 1411 1409 1406 1403 1400
1439 1436 1434 1431 1428 1426 1422 1419 1417 1416 1416 1417 1418 1420 1421 1422 1423 1424 1424 1424 1424 1425 1424 1424 1423 1422 1423 1422 1421 1421 1420 1419 1417 1416 1414 1412 1410 1408 1406 1404 1400 1397 1394
1431 1429 1427 1423 1420 1418 1415 1413 1412 1409 1410 1411 1413 1414 1414 1416 1418 1419 1420 1421 1420 1420 1420 1420 1420 1420 1419 1418 1417 1416 1416 1415 1413 1412 1410 1408 1405 1404 1402 1399 1396 1393 1390
1424 1420 1417 1414 1412 1411 1408 1405 1403 1405 1405 1407 1407 1406 1407 1409 1411 1413 1414 1414 1415 1415 1416 1416 1416 1416 1415 1414 1413 1412 1412 1411 1409 1408 1406 1404 1402 1400 1397 1394 1391 1388 1384
1415 1412 1409 1404 1403 1401 1400 1397 1397 1398 1398 1398 1400 1402 1403 1403 1405 1406 1408 1408 1409 1410 1410 1410 1410 1411 1410 1410 1409 1408 1407 1405 1404 1403 1402 1401 1399 1397 1394 1391 1388 1385 1380
1406 1403 1399 1396 1394 1393 1391 1389 1388 1388 1389 1390 1391 1394 1396 1398 1399 1400 1401 1402 1403 1404 1405 1406 1406 1406 1406 1406 1405 1404 1403 1402 1401 1399 1398 1397 1395 1393 1391 1388 1385 1381 1376
1397 1394 1390 1387 1385 1385 1384 1384 1383 1382 1381 1380 1382 1384 1387 1389 1391 1394 1397 1398 1398 1398 1399 1400 1400 1401 1401 1401 1401 1400 1399 1398 1397 1396 1394 1393 1391 1389 1387 1384 1380 1376 1373
1387 1383 1381 1379 1376 1373 1374 1375 1375 1375 1375 1375 1373 1373 1376 1379 1383 1386 1389 1391 1393 1393 1394 1395 1395 1396 1395 1395 1395 1395 1395 1394 1393 1391 1391 1389 1387 1385 1382 1378 1376 1372 1369